Tracking 23726 objects as of 23-Sep-2021
HD Live streaming from Space Station
objects crossing your sky now

LEASAT 5

Track LEASAT 5 now!
LEASAT 5 is classified as:


NORAD ID: 20410
Int'l Code: 1990-002B
Perigee: 35,955.3 km
Apogee: 36,013.9 km
Inclination: 11.6 °
Period: 1,445.9 minutes
Semi major axis: 42355 km
RCS: 12.5892 m2 (large)
Launch date: January 9, 1990
Source: United States (US)
Launch site: AIR FORCE EASTERN TEST RANGE (AFETR)

Ultra High Frequency (UHF) satellite communications services to Australia; leased at end of use by U.S. Navy to Royal Australian Navy.
aabbcc
Your satellite tracking list
Your tracking list is empty




NASA's NSSDC Master Catalog

Two Line Element Set (TLE):
1 20410U 90002B   21264.70396743 -.00000309  00000-0  00000-0 0  9995
2 20410  11.5801   0.8249 0006908  52.3515 316.7819  0.99594789101201
Source of the keplerian elements: AFSPC